Retour au catalogue

CZ-6A DEB

ActifPO
NORAD 56238·DEBRIS·🇨🇳 China

Lancé Nov 11, 2022 depuis Taiyuan Satellite Launch Center

Loading…

Prochains Passages (prochaines 24 heures)

TLE

FraisSource: Space-Track

Époque: Sep 14, 2026, 13:09 UTC

1 56238U 22151ABE 26257.54843395  .00000171  00000-0  20390-3 0  9994
2 56238  98.9051 167.3679 0245311 344.3431  15.0224 13.67458082174117

Suivez CZ-6A DEB en temps réel avec AllMySat

Download on the App Store